"Pseudo-MPEC" for C0E4CC5

Created 2022 Nov 27 7:22:04 UT using Find_Orb

Click here for an explanation of pseudo-MPECs

 
 Astrometry: 
     C0E4CC5* C2022 11 23nx`=wO1]joi-k9\Y$2BQ/+gx2TD'.6qV5Wtf`_I+T88EROX0aTq_V00
     C0E4CC5  C2022 11 23)IK]G,F^#Vs5*_Oj.4x!'xSVV==1AstrometryYhpc7v_(C`WpOaV00
     C0E4CC5  C2022 11 23U$+=m*rt\%P8CG#6N?MJ@fR@c8QYg9hFx`9\X3^=1'd4]Tb#\2CHV00
     C0E4CC5  C2022 11 23?=2WoEyb4y`tlw,%;jvK`;/o#fQ6/yULefA1?]yDM0uYij$?qOZ2V00
     C0E4CC5 KC2022 11 23.42378 04 11 54.45 +23 43 31.3    ~BNB7 21.8 RoNEOCP291
     C0E4CC5 KC2022 11 23.43127 04 11 55.33 +23 43 46.0    ~BNB7 22.0 RoNEOCP291
     C0E4CC5 KC2022 11 23.43875 04 11 56.24 +23 44 00.9    ~BNB7 21.2 RoNEOCP291
     C0E4CC5 mC2022 11 248O5$%g%4nEUiVtMUmK(#F;G6?f-IF?;O/@U4a5#UZXEjRLyEw[#CV00
     C0E4CC5 mC2022 11 24v$3DA?redacted;E:ZtITP8?oKyMJiYvB%M#\Jy:^o^Y4]soXw#bV00
     C0E4CC5 mC2022 11 24i?'^E1oIjFkIMn_xGy\=8oclickQuh-?$o.wvFvV1FYF$%sr?qt-V00
     C0E4CC5 mC2022 11 2570B`ECmd!cMR9sOp+O)au.@nZ_fTXskhvhNuev_f_frx:!HyPR`KV00
     C0E4CC5 mC2022 11 25`Z@t@,ORYtt/b#*here'yDG^d@6for$A9#rk=w+x=%r#.$7)xFE!V00
     C0E4CC5 mC2022 11 25+MT)tlmn)r6vObgm_LEW+qZ:uqwsrvOWI)`xv-lYY\U/xvV^Uo-LV00
     C0E4CC5 KC2022 11 26O!!!RNMO#^RaDP]+wpe3%N2U*JW9explanation??Ht@#LnPUr4.H21
     C0E4CC5 KC2022 11 26328Jri@]#y15To_1.$O'L#GPP;Z_gIm5`J-ODD,C/Aw$Zbf8lmeoH21
     C0E4CC5 KC2022 11 27.21981 04 20 18.20 +25 46 17.2    ~BR77 22.6 RoNEOCP691
     C0E4CC5 KC2022 11 27.24152 04 20 20.54 +25 46 58.0    ~BR77 22.8 RoNEOCP691
     C0E4CC5 KC2022 11 27.26324 04 20 22.87 +25 47 38.6    ~BR77 23.0 RoNEOCP691

Station data:
(291) LPL/Spacewatch II  (N31.961669 W111.599905)  US/Arizona.  Observers J.
   V. Scotti, R. S. McMillan. 1.8-m f/2.7 reflector + CCD.
(691) Steward Observatory, Kitt Peak - Spacewatch  (N31.962174 W111.600327)
   US/Arizona.  Observer J. V. Scotti. 0.9-m f/3 reflector + CCD.
(H21) Astronomical Research Observatory, Westfield  (N39.483054 W87.968270)
   US/Illinois.  Observer R. Holmes. Measurers S. Foglia, L. Buzzi, T.
   Linder, R. Holmes. 0.76-m f/3.0 astrograph + CCD0.81-m f/4.0 astrograph +
   CCD0.61-m f/4.5 astrograph + CCD0.40-m f/5.32 astrograph + CCD.
(V00) Kitt Peak-Bok  (N31.963125 W111.600190)  US/Arizona.  Observers T. A.
   Pruyne, B. M. Africano, E. J. Christensen, G. A. Farneth, D. C. Fuls, A.
   R. Gibbs, A. D. Grauer, H. Gröller, J. A. Johnson, R. A. Kowalski, S. M.
   Larson, G. J. Leonard, D. Rankin, R. L. Seaman, F. C. Shelly, K. W.
   Wierzchoś. 2.25-m reflector + CCD.

Orbital elements:  C0E4CC5
   Perihelion 2022 Nov 12.09560 +/- 0.105 TT =  2:17:39 (JD 2459895.59560)
Epoch 2022 Nov 27.0 TT = JDT 2459910.5   Earth MOID: 0.1446   Ma: 0.0485
M   5.29240070 +/- 0.10             (J2000 ecliptic)          AutoNEOCP
n   0.35508975 +/- 0.00904          Peri.  354.08394 +/- 0.10
a   1.97504634 +/- 0.0335           Node    56.32931 +/- 0.013
e   0.4257425 +/- 0.00847           Incl.    3.87440 +/- 0.06
P   2.78                   H 25.8   G  0.15   U  9.6
q 1.13418515 +/- 0.00253    Q 2.81590754 +/- 0.0645
From 18 observations 2022 Nov. 23-27; mean residual 0".20
Residuals in arcseconds: 
221123 V00  .03-  .00     221123 291  .05+  .46+    221125 V00  .46+  .23-    
221123 V00  .07+  .09-    221124 V00  .16-  .32-    221126 H21  .02+  .18+    
221123 V00  .07-  .23-    221124 V00  .02+  .16-    221126 H21  .10-  .18+    
221123 V00  .01-  .03-    221124 V00  .05+  .14-    221127 691  .10+  .33+    
221123 291  .12-  .11+    221125 V00  .34+  .35-    221127 691  .16-  .02-    
221123 291  .21-  .16+    221125 V00  .20+  .29-    221127 691  .22-  .20-    

Ephemerides (geocentric):
Date (UTC) HH   RA             Dec           delta  r     elong  mag " sig PA
---- --------  ------------   ------------  ------ ------ -----  --- --------
2022 11 27 07  04 20 25.556   +25 48 37.39  .15911 1.1454 174.8 22.5 .375 116
2022 11 27 08  04 20 30.885   +25 49 53.65  .15918 1.1455 174.8 22.5 .380 116
2022 11 27 09  04 20 36.211   +25 51 09.82  .15925 1.1455 174.8 22.5 .385 116
2022 11 27 10  04 20 41.533   +25 52 25.89  .15932 1.1456 174.8 22.5 .389 115
2022 11 27 11  04 20 46.852   +25 53 41.86  .15939 1.1456 174.8 22.5 .394 115
2022 11 27 12  04 20 52.168   +25 54 57.73  .15946 1.1457 174.8 22.5 .399 115
2022 11 27 13  04 20 57.481   +25 56 13.50  .15953 1.1458 174.8 22.5 .404 115
2022 11 27 14  04 21 02.790   +25 57 29.18  .15960 1.1458 174.8 22.5 .408 114
2022 11 27 15  04 21 08.096   +25 58 44.75  .15967 1.1459 174.8 22.5 .413 114
2022 11 27 16  04 21 13.399   +26 00 00.23  .15974 1.1459 174.7 22.5 .417 114
2022 11 27 17  04 21 18.699   +26 01 15.60  .15981 1.1460 174.7 22.5 .421 114
2022 11 27 18  04 21 23.995   +26 02 30.88  .15988 1.1461 174.7 22.5 .426 113
2022 11 27 19  04 21 29.288   +26 03 46.05  .15995 1.1461 174.7 22.5 .430 113
2022 11 27 20  04 21 34.578   +26 05 01.13  .16003 1.1462 174.7 22.5 .434 113
2022 11 27 21  04 21 39.864   +26 06 16.10  .16010 1.1463 174.7 22.5 .438 113
2022 11 27 22  04 21 45.148   +26 07 30.98  .16017 1.1463 174.7 22.5 .442 113
2022 11 27 23  04 21 50.428   +26 08 45.76  .16024 1.1464 174.7 22.5 .446 112
2022 11 28 00  04 21 55.705   +26 10 00.43  .16032 1.1465 174.7 22.5 .449 112
2022 11 28 01  04 22 00.978   +26 11 15.01  .16039 1.1465 174.7 22.5 .453 112
2022 11 28 02  04 22 06.248   +26 12 29.49  .16046 1.1466 174.7 22.5 .457 112
2022 11 28 03  04 22 11.515   +26 13 43.86  .16053 1.1466 174.7 22.5 .460 112
2022 11 28 04  04 22 16.779   +26 14 58.14  .16061 1.1467 174.7 22.5 .464 112
2022 11 28 05  04 22 22.040   +26 16 12.31  .16068 1.1468 174.7 22.5 .467 111
2022 11 28 06  04 22 27.297   +26 17 26.39  .16075 1.1468 174.7 22.5 .470 111
2022 11 28 07  04 22 32.551   +26 18 40.36  .16083 1.1469 174.7 22.5 .474 111
2022 11 28 08  04 22 37.801   +26 19 54.24  .16090 1.1470 174.7 22.5 .477 111
2022 11 28 09  04 22 43.049   +26 21 08.01  .16098 1.1470 174.7 22.5 .480 111
2022 11 28 10  04 22 48.293   +26 22 21.68  .16105 1.1471 174.7 22.5 .483 111
2022 11 28 11  04 22 53.534   +26 23 35.25  .16112 1.1472 174.6 22.5 .485 111
2022 11 28 12  04 22 58.771   +26 24 48.72  .16120 1.1472 174.6 22.5 .488 110
2022 11 28 13  04 23 04.006   +26 26 02.09  .16127 1.1473 174.6 22.5 .491 110
2022 11 28 14  04 23 09.237   +26 27 15.35  .16135 1.1474 174.6 22.5 .494 110
2022 11 28 15  04 23 14.465   +26 28 28.52  .16142 1.1474 174.6 22.5 .496 110
2022 11 28 16  04 23 19.689   +26 29 41.59  .16150 1.1475 174.6 22.5 .498 110
2022 11 28 17  04 23 24.911   +26 30 54.55  .16158 1.1476 174.6 22.5 .501 110
2022 11 28 18  04 23 30.129   +26 32 07.41  .16165 1.1476 174.6 22.6 .503 110
2022 11 28 19  04 23 35.344   +26 33 20.17  .16173 1.1477 174.6 22.6 .505 109
2022 11 28 20  04 23 40.555   +26 34 32.83  .16180 1.1478 174.6 22.6 .507 109
2022 11 28 21  04 23 45.763   +26 35 45.39  .16188 1.1478 174.6 22.6 .509 109
2022 11 28 22  04 23 50.968   +26 36 57.84  .16196 1.1479 174.6 22.6 .511 109
2022 11 28 23  04 23 56.170   +26 38 10.19  .16203 1.1480 174.6 22.6 .513 109
2022 11 29 00  04 24 01.368   +26 39 22.44  .16211 1.1480 174.6 22.6 .514 109
2022 11 29 01  04 24 06.564   +26 40 34.59  .16219 1.1481 174.6 22.6 .516 109
2022 11 29 02  04 24 11.756   +26 41 46.64  .16226 1.1482 174.5 22.6 .518 109
2022 11 29 03  04 24 16.944   +26 42 58.59  .16234 1.1482 174.5 22.6 .519 108
2022 11 29 04  04 24 22.130   +26 44 10.43  .16242 1.1483 174.5 22.6 .520 108
2022 11 29 05  04 24 27.312   +26 45 22.17  .16250 1.1484 174.5 22.6 .522 108
2022 11 29 06  04 24 32.490   +26 46 33.81  .16257 1.1484 174.5 22.6 .523 108